Great Salt Lake Weather Center

Moon Phase Calendar



Great Salt Lake Water Level
Online Cameras

 


      

Current Conditions in Little Mountain
5/22/2022 8:59:29 PM

54°F
Feels Like 51
Clouds
Humidity
52%
Pressure
30.03"
Wind
5.1 mph (NE)
Dew Point
37°F
UV Index
0/10 (Low)
Visibility
6 mi

Hourly Forecast

Date & Time Sun, May 22
8:00 PM
Sun, May 22
9:00 PM
Sun, May 22
10:00 PM
Sun, May 22
11:00 PM
Mon, May 23
12:00 AM
Mon, May 23
1:00 AM
Mon, May 23
2:00 AM
Mon, May 23
3:00 AM
Mon, May 23
4:00 AM
Mon, May 23
5:00 AM
Mon, May 23
6:00 AM
Mon, May 23
7:00 AM
Mon, May 23
8:00 AM
Mon, May 23
9:00 AM
Mon, May 23
10:00 AM
Mon, May 23
11:00 AM
Mon, May 23
12:00 PM
Mon, May 23
1:00 PM
Mon, May 23
2:00 PM
Mon, May 23
3:00 PM
Mon, May 23
4:00 PM
Mon, May 23
5:00 PM
Mon, May 23
6:00 PM
Mon, May 23
7:00 PM
Mon, May 23
8:00 PM
Mon, May 23
9:00 PM
Mon, May 23
10:00 PM
Mon, May 23
11:00 PM
Tue, May 24
12:00 AM
Tue, May 24
1:00 AM
Tue, May 24
2:00 AM
Tue, May 24
3:00 AM
Tue, May 24
4:00 AM
Tue, May 24
5:00 AM
Tue, May 24
6:00 AM
Tue, May 24
7:00 AM
Tue, May 24
8:00 AM
Tue, May 24
9:00 AM
Tue, May 24
10:00 AM
Tue, May 24
11:00 AM
Tue, May 24
12:00 PM
Tue, May 24
1:00 PM
Tue, May 24
2:00 PM
Tue, May 24
3:00 PM
Tue, May 24
4:00 PM
Tue, May 24
5:00 PM
Tue, May 24
6:00 PM
Tue, May 24
7:00 PM
Condition
Clouds

Clouds

Clouds

Clouds

Clouds

Clouds

Clear

Clear

Clouds

Clouds

Clouds

Clouds

Clouds

Clouds

Clouds

Clouds

Clouds

Clouds

Clouds

Clouds

Clouds

Clouds

Clouds

Clear

Clear

Clear

Clouds

Clouds

Clouds

Clouds

Rain

Rain

Clouds

Rain

Rain

Rain

Rain

Rain

Clouds

Clouds

Clouds

Clear

Clear

Clear

Clear

Clear

Clear

Clear
Temperature 54°F54°F54°F54°F54°F53°F52°F50°F50°F49°F48°F48°F48°F49°F50°F51°F52°F52°F53°F54°F56°F57°F58°F58°F58°F57°F57°F57°F56°F57°F55°F54°F54°F51°F50°F50°F51°F52°F53°F54°F55°F55°F56°F57°F58°F59°F60°F60°F
Feels Like 51°F51°F51°F51°F51°F51°F49°F48°F47°F46°F45°F44°F45°F46°F48°F48°F49°F50°F51°F52°F53°F54°F55°F56°F55°F55°F54°F54°F54°F54°F52°F52°F51°F49°F48°F48°F49°F50°F51°F51°F52°F53°F53°F54°F55°F56°F57°F57°F
Cloudiness 87%84%82%75%65%21%5%7%11%24%37%100%100%100%100%100%100%100%100%100%99%91%79%6%6%6%12%11%18%100%76%84%85%78%81%81%63%47%44%40%34%1%4%6%7%7%6%7%
Visibility 6 mi6 mi6 mi6 mi6 mi6 mi6 mi6 mi6 mi6 mi6 mi6 mi6 mi6 mi6 mi6 mi6 mi6 mi6 mi6 mi6 mi6 mi6 mi6 mi6 mi6 mi6 mi6 mi6 mi6 mi6 mi6 mi6 mi6 mi6 mi6 mi6 mi6 mi6 mi6 mi6 mi6 mi6 mi6 mi6 mi6 mi6 mi6 mi
Precipitation 17%19%19%13%13%0%0%0%0%0%0%0%0%0%0%0%0%0%0%0%0%0%0%0%0%0%0%0%0%22%36%56%52%60%68%79%77%63%63%55%46%0%0%0%0%0%0%0%
Humidity 53%52%51%51%50%51%56%59%60%62%65%67%65%62%59%55%51%49%46%42%36%31%30%32%36%38%39%39%39%42%49%53%56%66%68%68%65%59%56%52%46%44%41%37%35%36%37%38%
Dew Point 37°F37°F36°F36°F36°F36°F36°F36°F36°F37°F37°F37°F37°F36°F36°F35°F34°F34°F33°F31°F29°F26°F26°F29°F31°F32°F32°F32°F31°F34°F36°F37°F38°F40°F40°F40°F39°F38°F37°F36°F34°F34°F32°F31°F30°F32°F33°F34°F
Pressure 30.03"30.03"30.03"30.03"30.03"30.06"30.06"30.06"30.09"30.09"30.09"30.09"30.12"30.12"30.09"30.09"30.09"30.06"30.03"30.03"30"29.94"29.91"29.91"29.91"29.91"29.88"29.88"29.91"29.88"29.88"29.91"29.91"29.91"29.94"29.94"29.97"29.97"29.97"29.97"29.97"29.97"29.97"29.97"29.94"29.94"29.94"29.91"
Wind Speed 14.3 mph5.1 mph5.4 mph5.8 mph9.1 mph10.8 mph8.4 mph6.5 mph6.4 mph7.1 mph7.8 mph7.5 mph7.4 mph6.6 mph5.6 mph3.8 mph0.3 mph2.5 mph3.3 mph3.2 mph1.2 mph1.3 mph4 mph6.6 mph9.1 mph9.6 mph9.5 mph6.7 mph3 mph8 mph5.5 mph9 mph9.7 mph10.2 mph6.7 mph7.2 mph7 mph8 mph8 mph7.4 mph5.6 mph6 mph6.2 mph7.2 mph5.5 mph7.1 mph5.4 mph3.9 mph
Wind
Direction
22°
NNE
38°
NE
16°
NNE

N
330°
NNW
342°
NNW
15°
NNE
19°
NNE
19°
NNE
29°
NNE
41°
NE
40°
NE
37°
NE
39°
NE
45°
NE
62°
ENE
13°
NNE
239°
WSW
253°
WSW
282°
WNW
358°
N
130°
SE
134°
SE
133°
SE
131°
SE
133°
SE
134°
SE
115°
ESE
149°
SSE
187°
S
211°
SSW
345°
NNW
64°
ENE
79°
E
61°
ENE
58°
ENE
41°
NE
34°
NE
21°
NNE

N
323°
NW
287°
WNW
286°
WNW
284°
WNW
288°
WNW
262°
W
255°
WSW
229°
SW

Daily Forecast

Date High Low Precip. Humidity
Today
May 22

Clear
60 °F
50 °F
19%
36%
Monday
May 23

Clouds
58 °F
48 °F
13%
49%
Tuesday
May 24

Rain
60 °F
50 °F
79%
46%
Wednesday
May 25

Clouds
66 °F
55 °F
0%
45%
Thursday
May 26

Clouds
73 °F
60 °F
0%
51%
Friday
May 27

Clouds
68 °F
61 °F
0%
56%
Saturday
May 28

Clouds
69 °F
59 °F
0%
54%
Sunday
May 29

Clouds
64 °F
53 °F
33%
34%
Monday
May 30

Clouds
61 °F
51 °F
0%
35%
Tuesday
May 31

Clouds
68 °F
57 °F
0%
36%
Wednesday
Jun 1

Clouds
66 °F
59 °F
0%
31%
Thursday
Jun 2

Rain
69 °F
59 °F
61%
46%
Friday
Jun 3

Rain
58 °F
53 °F
74%
62%
Saturday
Jun 4

Rain
59 °F
51 °F
79%
41%
Sunday
Jun 5

Clouds
70 °F
54 °F
0%
34%
Monday
Jun 6

Clouds
71 °F
61 °F
0%
43%

Temperature 8-14 Day Outlook



Precipitation 8-14 Day Outlook




Quick Links
Great Salt Lake News
Great Salt Lake Photos
Great Salt Lake Videos




About Us
Contact Us
Site Map
Search Site
Advertise With Us
   
GreatSalt.USLakes.info
THE GREAT SALT LAKE WEBSITE

Copyright 2022, Lakes Online
Privacy    |    Legal